This demonstration page uses our WeatherBlox Daily Observations layout. Learn more.

40.92945, -100.16068

Hourly Observations for June 14, 2017

Temp ( °F °C ) Dew Point ( °F °C ) Humidity (%) Winds ( mph kmh ) Pressure ( in mb ) Visibility ( mi km ) Precip ( " mm )
12:15 am 00:15 Clear 67 19.6 56 13.6 68 68 ENE 6 9 29.62 1003 10 16.0934 0 0
12:35 am 00:35 Clear 67 19.7 57 14 70 70 ESE 3 6 29.65 1004 10 16.0934 0 0
12:55 am 00:55 Clear 71 21.8 58 14.5 63 63 Calm 29.62 1003 10 16.0934 0 0
1:15 am 01:15 Hazy 68 19.8 59 14.8 73 73 S 3 6 29.65 1004 3 4.82802 0 0
1:35 am 01:35 Partly Cloudy 71 21.8 61 16.1 70 70 NNW 9 15 29.62 1003 10 16.0934 0 0
1:55 am 01:55 Cloudy 71 21.5 60 15.5 69 69 Calm 29.62 1003 10 16.0934 0 0
2:15 am 02:15 Cloudy 72 22.2 61 16.1 68 68 W 6 9 29.65 1004 10 16.0934 0 0
2:35 am 02:35 Cloudy 74 23.3 62 16.5 66 66 SW 7 11 29.65 1004 10 16.0934 0 0
2:55 am 02:55 Cloudy 74 23.1 62 16.6 67 67 W 8 13 29.65 1004 10 16.0934 0 0
3:15 am 03:15 Mostly Cloudy with Nearby Thunderstorms 69 20.7 61 16 75 75 NNW 6 9 29.68 1005 10 16.0934 0 0
3:35 am 03:35 Cloudy 72 22.3 62 16.7 71 71 NNE 9 15 29.65 1004 10 16.0934 0 0
3:55 am 03:55 Partly Cloudy 71 21.8 59 15.1 66 66 NE 7 11 29.65 1004 10 16.0934 0 0
4:10 am 04:10 Clear 68 20.2 58 14.7 71 71 ENE 7 11 29.71 1006 10 16.0934 0 0
4:35 am 04:35 Clear with Nearby Thunderstorms 67 19.4 58 14.2 72 72 NE 10 17 29.71 1006 10 16.0934 0 0
4:55 am 04:55 Clear 66 18.9 56 13.6 71 71 NE 7 11 29.74 1007 10 16.0934 0 0
5:15 am 05:15 Clear 63 17.1 58 14.2 83 83 NW 7 11 29.77 1008 10 16.0934 0 0
5:35 am 05:35 Clear 60 15.8 56 13.2 85 85 NNW 5 7 29.77 1008 10 16.0934 0 0
5:55 am 05:55 Clear 59 15.1 55 12.8 86 86 N 6 9 29.8 1009 10 16.0934 0 0
6:15 am 06:15 Sunny 60 15.3 54 12.2 82 82 Calm 29.8 1009 10 16.0934 0 0
6:35 am 06:35 Sunny 58 14.2 51 10.5 79 79 WNW 5 7 29.83 1010 10 16.0934 0 0
6:55 am 06:55 Sunny 58 14.5 51 10.7 78 78 W 5 7 29.83 1010 10 16.0934 0 0
7:15 am 07:15 Sunny 60 15.3 50 10.2 72 72 WNW 7 11 29.8 1009 10 16.0934 0 0
7:35 am 07:35 Sunny 62 16.4 50 9.9 66 66 W 6 9 29.83 1010 10 16.0934 0 0
7:55 am 07:55 Sunny 63 17.3 50 9.8 62 62 W 8 13 29.83 1010 10 16.0934 0 0
8:15 am 08:15 Sunny 66 18.8 49 9.5 55 55 WNW 8 13 29.8 1009 7 11.26538 0 0
8:35 am 08:35 Sunny 68 20.1 48 8.9 49 49 W 6 9 29.8 1009 10 16.0934 0 0
8:55 am 08:55 Sunny 69 20.6 46 7.9 44 44 NW 8 13 29.83 1010 10 16.0934 0 0
9:15 am 09:15 Sunny 70 21 48 8.7 45 45 WNW 6 9 29.83 1010 10 16.0934 0 0
9:35 am 09:35 Sunny 71 21.7 49 9.2 45 45 NNW 6 9 29.83 1010 10 16.0934 0 0
9:55 am 09:55 Sunny 72 22.3 48 8.8 42 42 NW 10 17 29.83 1010 10 16.0934 0 0
10:15 am 10:15 Sunny 74 23.2 49 9.2 41 41 WNW 10 17 29.8 1009 10 16.0934 0 0
10:35 am 10:35 Sunny 74 23.5 47 8.3 38 38 NW 10 17 29.8 1009 10 16.0934 0 0
10:55 am 10:55 Sunny 75 24 47 8.2 37 37 NW 7 11 29.8 1009 10 16.0934 0 0
11:15 am 11:15 Sunny 76 24.5 47 8.4 36 36 NW 8 13 29.77 1008 10 16.0934 0 0
11:35 am 11:35 Sunny 77 25.1 45 7.1 32 32 NW 5 7 29.8 1009 10 16.0934 0 0
11:55 am 11:55 Sunny 78 25.7 45 7.1 31 31 Calm 29.8 1009 10 16.0934 0 0
12:15 pm 12:15 Sunny 79 26 45 7.4 31 31 WNW 7 11 29.74 1007 10 16.0934 0 0
12:35 pm 12:35 Sunny 80 26.6 46 7.6 30 30 NNW 7 11 29.77 1008 10 16.0934 0 0
12:55 pm 12:55 Sunny 80 26.9 45 7 28 28 SW 3 6 29.74 1007 10 16.0934 0 0
1:15 pm 13:15 Sunny 82 27.5 47 8.1 29 29 W 10 17 29.74 1007 10 16.0934 0 0
1:35 pm 13:35 Sunny 82 27.5 44 6.8 27 27 W 3 6 29.74 1007 10 16.0934 0 0
1:55 pm 13:55 Sunny 82 28 45 7.2 27 27 W 7 11 29.74 1007 10 16.0934 0 0
2:15 pm 14:15 Sunny 83 28.3 43 6.2 25 25 WNW 12 19 29.74 1007 10 16.0934 0 0
2:35 pm 14:35 Sunny 84 28.7 42 5.4 23 23 W 6 9 29.74 1007 10 16.0934 0 0
2:55 pm 14:55 Sunny 84 29.1 43 6 23 23 WNW 9 15 29.74 1007 10 16.0934 0 0
3:15 pm 15:15 Sunny 85 29.2 42 5.6 22 22 W 6 9 29.74 1007 10 16.0934 0 0
3:35 pm 15:35 Sunny 85 29.5 46 7.5 25 25 W 8 13 29.71 1006 10 16.0934 0 0
3:55 pm 15:55 Sunny 85 29.6 44 6.6 23 23 W 3 6 29.71 1006 10 16.0934 0 0
4:15 pm 16:15 Sunny 86 30.1 42 5.8 22 22 WNW 7 11 29.71 1006 10 16.0934 0 0
4:35 pm 16:35 Sunny 86 30.2 42 5.7 21 21 WNW 5 7 29.68 1005 10 16.0934 0 0
4:55 pm 16:55 Sunny 87 30.3 44 6.5 22 22 SSW 7 11 29.68 1005 10 16.0934 0 0
5:15 pm 17:15 Sunny 87 30.4 43 6.2 22 22 NNW 10 17 29.68 1005 10 16.0934 0 0
5:35 pm 17:35 Sunny 87 30.3 43 5.9 21 21 WNW 7 11 29.68 1005 10 16.0934 0 0
5:55 pm 17:55 Sunny 87 30.4 41 5 20 20 WNW 13 20 29.68 1005 10 16.0934 0 0
6:15 pm 18:15 Sunny 86 30.1 42 5.7 21 21 WNW 13 20 29.68 1005 10 16.0934 0 0
6:35 pm 18:35 Sunny 86 30.2 41 4.8 20 20 W 10 17 29.68 1005 10 16.0934 0 0
6:55 pm 18:55 Sunny 86 29.8 44 6.8 23 23 WNW 6 9 29.65 1004 10 16.0934 0 0
7:15 pm 19:15 Sunny 85 29.5 42 5.8 22 22 W 7 11 29.65 1004 10 16.0934 0 0
7:35 pm 19:35 Sunny 84 28.9 46 7.9 27 27 N 6 9 29.65 1004 10 16.0934 0 0
7:55 pm 19:55 Sunny 84 28.8 48 8.9 29 29 Calm 29.71 1006 10 16.0934 0 0
8:15 pm 20:15 Sunny 83 28.4 56 13.3 39 39 Calm 29.71 1006 10 16.0934 0 0
8:35 pm 20:35 Sunny 81 27.2 49 9.7 33 33 Calm 29.71 1006 10 16.0934 0 0
8:55 pm 20:55 Sunny 79 26.3 49 9.7 35 35 Calm 29.71 1006 10 16.0934 0 0
9:15 pm 21:15 Clear 78 25.3 46 7.8 33 33 S 5 7 29.74 1007 10 16.0934 0 0
9:35 pm 21:35 Clear 74 23.1 49 9.2 41 41 SSE 3 6 29.77 1008 10 16.0934 0 0
9:55 pm 21:55 Clear 73 22.8 49 9.7 43 43 Calm 29.77 1008 10 16.0934 0 0
10:15 pm 22:15 Clear 73 22.8 48 9.1 42 42 Calm 29.77 1008 10 16.0934 0 0
10:35 pm 22:35 Clear 72 22.1 49 9.3 44 44 Calm 29.8 1009 10 16.0934 0 0
10:55 pm 22:55 Clear 67 19.2 51 10.8 58 58 E 3 6 29.8 1009 10 16.0934 0 0
11:15 pm 23:15 Clear 67 19.2 51 10.8 58 58 Calm 29.83 1010 7 11.26538 0 0
11:35 pm 23:35 Clear 67 19.3 53 11.7 62 62 SW 3 6 29.83 1010 10 16.0934 0 0
11:55 pm 23:55 Clear 69 20.6 52 11.1 55 55 Calm 29.83 1010 10 16.0934 0 0

Powered by AerisWeather